GW4954 Weather Reports


Display with metric or nautical units.
time (UTC)temp
F
wind
direction
speed
MPH
gust
MPH
rain 1hr
in
rain 24hr
in
rain mn
in
humidity
%
barometer
mb
20260505102038 58 10 2.0 3.0 0.00 0.00 0.00 59 1002.2
20260505101537 58 22 2.0 4.0 0.00 0.00 0.00 58 1002.2
20260505101033 58 2 2.0 4.0 0.00 0.00 0.00 58 1002.3
20260505100530 58 359 3.0 3.0 0.00 0.00 0.00 58 1002.2
20260505100027 58 6 3.0 6.0 0.00 0.00 0.00 58 1002.4
20260505095523 58 34 3.0 4.0 0.00 0.00 0.00 58 1002.3
20260505095019 58 26 2.0 3.0 0.00 0.00 0.00 57 1002.4
20260505094516 58 13 1.0 6.0 0.00 0.00 0.00 57 1002.3
20260505094012 58 54 2.0 3.0 0.00 0.00 0.00 57 1002.4
20260505093509 58 14 1.0 3.0 0.00 0.00 0.00 57 1002.5
20260505093006 58 50 2.0 2.0 0.00 0.00 0.00 57 1002.5
20260505092504 59 16 2.0 3.0 0.00 0.00 0.00 56 1002.3
20260505092001 58 17 3.0 4.0 0.00 0.00 0.00 56 1002.6
20260505091458 58 348 3.0 4.0 0.00 0.00 0.00 56 1002.4
20260505090956 58 45 2.0 8.0 0.00 0.00 0.00 55 1002.5
20260505090454 59 28 3.0 4.0 0.00 0.00 0.00 55 1002.6
20260505085951 59 9 2.0 4.0 0.00 0.00 0.00 55 1002.6
20260505085449 59 359 1.0 3.0 0.00 0.00 0.00 54 1002.7
20260505084947 59 9 0.0 4.0 0.00 0.00 0.00 54 1002.4
20260505084445 59 7 1.0 4.0 0.00 0.00 0.00 54 1002.6
20260505083943 59 35 1.0 3.0 0.00 0.00 0.00 54 1002.8
20260505083440 59 37 4.0 6.0 0.00 0.00 0.00 54 1002.5
20260505082936 59 12 2.0 3.0 0.00 0.00 0.00 54 1002.7
20260505082432 59 19 2.0 6.0 0.00 0.00 0.00 54 1002.7
20260505081929 59 338 2.0 8.0 0.00 0.00 0.00 54 1002.6
20260505081426 58 25 2.0 7.0 0.00 0.00 0.00 54 1002.8
20260505080922 59 22 1.0 6.0 0.00 0.00 0.00 54 1002.8
20260505080419 59 7 2.0 3.0 0.00 0.00 0.00 54 1002.4
20260505075914 59 20 4.0 6.0 0.00 0.00 0.00 54 1002.6
20260505075411 59 16 2.0 3.0 0.00 0.00 0.00 54 1002.7
20260505074909 59 27 3.0 6.0 0.00 0.00 0.00 53 1002.4
20260505074406 59 1 2.0 2.0 0.00 0.00 0.00 54 1002.4
20260505073903 59 25 2.0 3.0 0.00 0.00 0.00 53 1002.6
20260505073400 59 66 3.0 4.0 0.00 0.00 0.00 53 1002.6
20260505072857 59 3 2.0 6.0 0.00 0.00 0.00 53 1002.8
20260505072353 59 25 2.0 2.0 0.00 0.00 0.00 53 1002.6
20260505071850 59 1 2.0 3.0 0.00 0.00 0.00 54 1002.7
20260505071346 59 23 1.0 2.0 0.00 0.00 0.00 53 1002.9
20260505070844 59 6 1.0 2.0 0.00 0.00 0.00 53 1002.9
20260505070340 60 13 2.0 3.0 0.00 0.00 0.00 52 1003.1
20260505065836 60 8 2.0 3.0 0.00 0.00 0.00 52 1003.1
20260505065333 60 24 1.0 2.0 0.00 0.00 0.00 51 1003.1
20260505064830 60 8 2.0 3.0 0.00 0.00 0.00 51 1003.2
20260505064327 60 14 1.0 3.0 0.00 0.00 0.00 51 1003.1
20260505063825 61 13 4.0 7.0 0.00 0.00 0.00 50 1003.1
20260505063321 61 24 2.0 2.0 0.00 0.00 0.00 50 1002.9
20260505062817 61 43 2.0 4.0 0.00 0.00 0.00 49 1003.0
20260505062315 62 348 2.0 4.0 0.00 0.00 0.00 49 1002.9
20260505061811 62 54 2.0 3.0 0.00 0.00 0.00 48 1003.0
20260505061310 63 11 1.0 3.0 0.00 0.00 0.00 47 1003.1
20260505060807 63 45 2.0 4.0 0.00 0.00 0.00 45 1002.9
20260505060304 64 41 2.0 3.0 0.00 0.00 0.00 45 1003.1
20260505055759 64 18 3.0 4.0 0.00 0.00 0.00 45 1003.0
20260505055256 63 19 1.0 4.0 0.00 0.00 0.00 45 1003.3
20260505054753 64 59 2.0 3.0 0.00 0.00 0.00 46 1003.1
20260505054251 64 10 1.0 6.0 0.00 0.00 0.00 45 1003.3
20260505053749 64 50 2.0 4.0 0.00 0.00 0.00 45 1003.3
20260505053245 63 43 1.0 4.0 0.00 0.00 0.00 46 1003.6
20260505052742 64 44 2.0 4.0 0.00 0.00 0.00 45 1003.4
20260505052239 64 328 2.0 6.0 0.00 0.00 0.00 45 1003.6
20260505051736 64 30 3.0 6.0 0.00 0.00 0.00 45 1003.5
20260505051234 64 41 4.0 4.0 0.00 0.00 0.00 45 1003.5
20260505050732 64 24 1.0 1.0 0.00 0.00 0.00 46 1003.5
20260505050230 64 12 2.0 3.0 0.00 0.00 0.00 45 1003.7
20260505041700 63 24 1.0 3.0 0.00 0.00 0.00 47 1003.9
20260505041157 63 28 2.0 3.0 0.00 0.00 0.00 47 1004.0
20260505040654 62 356 2.0 6.0 0.00 0.00 0.00 47 1003.9
20260505040151 61 16 1.0 3.0 0.00 0.00 0.00 50 1004.2
20260505035648 61 15 1.0 1.0 0.00 0.10 0.10 51 1004.1
20260505035144 60 22 1.0 1.0 0.00 0.10 0.10 52 1004.2
20260505034640 61 9 1.0 2.0 0.00 0.10 0.10 52 1004.1
20260505034138 61 22 1.0 2.0 0.00 0.10 0.10 52 1004.1
20260505033634 61 30 1.0 3.0 0.00 0.10 0.10 52 1004.0
20260505033133 61 359 1.0 1.0 0.00 0.10 0.10 53 1004.2
20260505032630 61 1 1.0 3.0 0.00 0.10 0.10 53 1004.2
20260505032126 61 16 1.0 2.0 0.00 0.10 0.10 53 1004.1
20260505031624 61 11 2.0 2.0 0.00 0.10 0.10 53 1004.2
20260505031120 60 17 2.0 2.0 0.00 0.10 0.10 54 1004.4
20260505030617 60 18 1.0 2.0 0.00 0.10 0.10 55 1004.3
20260505030113 60 23 1.0 1.0 0.00 0.10 0.10 55 1004.3
20260505025608 60 39 1.0 2.0 0.00 0.10 0.10 55 1004.6
20260505025108 60 19 1.0 3.0 0.00 0.10 0.10 55 1004.4
20260505024604 60 39 2.0 2.0 0.00 0.10 0.10 55 1004.4
20260505024102 60 22 1.0 2.0 0.00 0.10 0.10 55 1004.5
20260505023559 60 9 1.0 2.0 0.00 0.10 0.10 55 1004.5
20260505023056 60 19 1.0 2.0 0.00 0.10 0.10 56 1004.3
20260505022554 60 18 2.0 2.0 0.00 0.10 0.10 56 1004.5
20260505022051 59 20 0.0 1.0 0.00 0.10 0.10 58 1004.7
20260505021547 59 13 1.0 1.0 0.00 0.10 0.10 58 1004.7
20260505021044 60 16 0.0 2.0 0.00 0.10 0.10 58 1004.6
20260505020543 60 6 1.0 2.0 0.00 0.10 0.10 58 1004.8
20260505020041 60 1 1.0 1.0 0.00 0.10 0.10 58 1004.8
20260505015538 60 16 0.0 2.0 0.00 0.10 0.10 58 1004.9
20260505015035 60 20 0.0 2.0 0.00 0.10 0.10 58 1004.8
20260505014531 60 14 1.0 1.0 0.00 0.10 0.10 58 1004.8
20260505014029 60 12 0.0 2.0 0.00 0.10 0.10 58 1004.8
20260505013526 60 18 1.0 2.0 0.00 0.10 0.10 58 1004.7
20260505013023 60 21 0.0 2.0 0.00 0.10 0.10 58 1004.8
20260505012522 60 18 1.0 1.0 0.00 0.10 0.10 58 1004.7
20260505012018 60 17 0.0 1.0 0.00 0.10 0.10 58 1004.8
20260505011513 60 19 2.0 3.0 0.00 0.10 0.10 57 1004.9
20260505011011 60 25 0.0 1.0 0.00 0.10 0.10 58 1004.8
20260505010506 60 18 0.0 1.0 0.00 0.10 0.10 59 1004.9
20260505010002 60 24 1.0 1.0 0.00 0.10 0.10 58 1004.9
20260505005459 60 12 0.0 0.0 0.00 0.10 0.10 59 1004.9
20260505004957 60 13 0.0 0.0 0.00 0.10 0.10 59 1004.9
20260505004454 60 13 0.0 0.0 0.00 0.10 0.10 59 1004.8
20260505003950 60 13 0.0 0.0 0.00 0.10 0.10 59 1005.0
20260505003448 61 20 1.0 1.0 0.00 0.10 0.10 59 1004.8
20260505002944 61 20 1.0 1.0 0.00 0.10 0.10 59 1004.7
20260505002440 61 20 1.0 1.0 0.00 0.10 0.10 59 1004.7
20260505001939 61 20 1.0 1.0 0.00 0.10 0.10 59 1004.7
20260505001436 61 14 1.0 1.0 0.00 0.10 0.10 59 1005.0
20260505000933 62 13 0.0 1.0 0.00 0.10 0.10 58 1004.7
20260505000431 62 13 0.0 1.0 0.00 0.10 0.10 58 1004.7
20260504235927 62 13 0.0 1.0 0.00 0.10 0.10 58 1004.8
20260504235425 62 13 0.0 1.0 0.00 0.10 0.10 58 1004.4
20260504234921 62 13 0.0 1.0 0.00 0.10 0.10 58 1004.5
20260504234418 62 13 0.0 1.0 0.00 0.10 0.10 58 1004.6
20260504233915 64 49 2.0 3.0 0.00 0.10 0.10 50 1004.6
20260504233410 64 49 2.0 3.0 0.00 0.10 0.10 50 1004.5
20260504232907 64 49 2.0 3.0 0.00 0.10 0.10 50 1004.4
20260504232404 64 49 2.0 3.0 0.00 0.10 0.10 50 1004.5
20260504231901 65 23 0.0 1.0 0.00 0.10 0.10 49 1004.4
20260504231358 65 23 0.0 1.0 0.00 0.10 0.10 49 1004.4
20260504230854 65 23 0.0 1.0 0.00 0.10 0.10 49 1004.6
20260504230351 65 23 0.0 1.0 0.00 0.10 0.10 49 1004.5
20260504225850 65 23 0.0 0.0 0.00 0.10 0.10 48 1004.6
20260504225346 65 47 1.0 2.0 0.00 0.10 0.10 47 1004.7
20260504224844 65 358 1.0 2.0 0.00 0.10 0.10 47 1004.6
20260504224340 65 38 1.0 1.0 0.00 0.10 0.10 46 1004.7
20260504223837 65 38 1.0 1.0 0.00 0.10 0.10 46 1004.7
20260504223333 65 7 0.0 1.0 0.00 0.10 0.10 46 1004.6
20260504222829 65 7 0.0 2.0 0.00 0.10 0.10 46 1004.5
20260504222326 66 45 0.0 0.0 0.00 0.10 0.10 45 1004.6
20260504221825 66 45 0.0 0.0 0.00 0.10 0.10 45 1004.6
20260504221321 66 351 2.0 7.0 0.00 0.10 0.10 45 1004.5
20260504220818 66 139 4.0 7.0 0.00 0.10 0.10 45 1004.6
20260504220315 66 3 2.0 9.0 0.00 0.10 0.10 45 1004.7
20260504215813 66 61 3.0 4.0 0.00 0.10 0.10 45 1004.6
20260504215309 66 20 2.0 6.0 0.00 0.10 0.10 45 1004.6
20260504214805 66 16 3.0 6.0 0.00 0.10 0.10 45 1004.4
20260504214301 66 20 0.0 3.0 0.00 0.10 0.10 46 1004.5
20260504213758 66 357 1.0 2.0 0.00 0.10 0.10 46 1004.5
20260504213254 66 28 1.0 1.0 0.00 0.10 0.10 47 1004.6
20260504212752 66 11 2.0 3.0 0.00 0.10 0.10 47 1004.7
20260504212248 66 26 1.0 2.0 0.00 0.10 0.10 46 1004.7
20260504211746 66 12 0.0 1.0 0.00 0.10 0.10 47 1004.6
20260504211241 67 18 1.0 4.0 0.00 0.10 0.10 46 1004.6
20260504210739 67 78 0.0 1.0 0.00 0.10 0.10 46 1004.7
20260504210236 66 36 1.0 1.0 0.00 0.10 0.10 46 1004.7
20260504205733 67 156 1.0 1.0 0.00 0.10 0.10 46 1004.8
20260504205231 67 93 1.0 2.0 0.00 0.10 0.10 46 1004.6
20260504204729 67 98 1.0 1.0 0.00 0.10 0.10 46 1004.7
20260504204227 65 0 2.0 2.0 0.00 0.10 0.10 48 1004.9
20260504203726 66 25 1.0 1.0 0.00 0.10 0.10 48 1004.8
20260504203223 65 23 0.0 0.0 0.00 0.10 0.10 49 1004.9
20260504202723 65 25 0.0 0.0 0.00 0.10 0.10 49 1004.7
20260504202220 64 114 2.0 3.0 0.00 0.10 0.10 51 1004.9
20260504201717 64 114 2.0 3.0 0.00 0.10 0.10 51 1005.0
20260504201215 64 13 1.0 1.0 0.00 0.10 0.10 53 1004.8
20260504200712 64 13 1.0 1.0 0.00 0.10 0.10 53 1005.1
20260504200208 64 13 1.0 1.0 0.00 0.10 0.10 53 1004.9
20260504195705 64 13 1.0 1.0 0.00 0.10 0.10 53 1005.0
20260504195200 63 26 1.0 1.0 0.00 0.10 0.10 54 1005.3
20260504194658 63 26 1.0 1.0 0.00 0.10 0.10 54 1005.2
20260504194153 63 2 2.0 4.0 0.00 0.10 0.10 54 1005.4
20260504193650 64 115 1.0 2.0 0.00 0.10 0.10 53 1005.2
20260504193148 63 25 1.0 1.0 0.00 0.10 0.10 54 1005.3
20260504192646 62 20 1.0 1.0 0.00 0.10 0.10 56 1005.3
20260504192144 62 322 2.0 3.0 0.00 0.10 0.10 56 1005.7
20260504191642 62 322 2.0 3.0 0.00 0.10 0.10 56 1005.7
20260504191138 63 25 2.0 3.0 0.00 0.10 0.10 54 1005.6
20260504190634 63 25 2.0 3.0 0.00 0.10 0.10 54 1005.8
20260504190131 62 349 1.0 2.0 0.00 0.10 0.10 56 1005.8
20260504185627 59 54 4.0 6.0 0.00 0.10 0.10 61 1005.9
20260504185124 59 54 4.0 6.0 0.00 0.10 0.10 61 1005.9
20260504184620 59 54 4.0 6.0 0.00 0.10 0.10 61 1006.1
20260504184115 59 84 2.0 3.0 0.00 0.10 0.10 61 1006.2
20260504183613 59 337 2.0 2.0 0.00 0.10 0.10 60 1006.2
20260504183110 60 93 1.0 7.0 0.00 0.10 0.10 61 1006.3
20260504182607 60 50 3.0 4.0 0.00 0.10 0.10 61 1006.2
20260504182105 60 81 3.0 6.0 0.00 0.10 0.10 61 1006.4
20260504181601 59 8 1.0 1.0 0.00 0.10 0.10 63 1006.4
20260504181059 58 16 0.0 1.0 0.00 0.10 0.10 65 1006.2
20260504180558 59 22 1.0 3.0 0.00 0.10 0.10 64 1006.4
20260504180057 59 353 1.0 1.0 0.00 0.10 0.10 63 1006.4
20260504175554 58 69 1.0 3.0 0.00 0.10 0.10 66 1006.3
20260504175050 58 358 2.0 4.0 0.00 0.10 0.10 66 1006.4
20260504174548 57 9 2.0 2.0 0.00 0.10 0.10 66 1006.3
20260504174045 57 90 3.0 3.0 0.00 0.10 0.10 66 1006.5
20260504173542 58 72 2.0 3.0 0.00 0.10 0.10 65 1006.6
20260504173039 57 42 2.0 2.0 0.00 0.10 0.10 65 1006.5
20260504172535 57 70 2.0 3.0 0.00 0.10 0.10 65 1006.6
20260504172032 57 118 4.0 6.0 0.00 0.10 0.10 65 1006.6
20260504171529 56 30 0.0 1.0 0.00 0.10 0.10 67 1006.6
20260504171021 56 30 0.0 1.0 0.00 0.10 0.10 67 1006.7
20260504170516 56 30 0.0 1.0 0.00 0.10 0.10 67 1006.8
20260504160436 54 61 3.0 6.0 0.00 0.10 0.10 74 1006.7
20260504150900 51 180 1.0 4.0 0.00 0.10 0.10 82 1006.7
20260504150356 51 12 0.0 4.0 0.00 0.10 0.10 85 1006.6
20260504141326 48 140 2.0 6.0 0.00 0.10 0.10 90 1006.7
20260504140823 48 17 1.0 3.0 0.00 0.10 0.10 90 1006.7
20260504140319 48 20 4.0 4.0 0.00 0.10 0.10 90 1006.6
20260504130748 48 8 1.0 4.0 0.00 0.09 0.09 91 1006.0
20260504130243 48 83 0.0 3.0 0.00 0.09 0.09 92 1006.1
20260504120207 47 3 1.0 2.0 0.12 0.08 0.08 91 1005.6
20260504110635 47 12 1.0 2.0 0.00 0.00 0.00 87 1005.5
20260504110131 47 6 0.0 1.0 0.00 0.00 0.00 87 1005.5